CW5752 Weather Reports


Display with metric or nautical units.
time (UTC)temp
F
wind
direction
speed
MPH
gust
MPH
rain 1hr
in
rain 24hr
in
rain mn
in
humidity
%
barometer
mb
20260905120016 73 0.0 0.0 0.00 0.00 0.00 92 1013.6
20260905115021 74 0.0 0.0 0.00 0.00 0.00 93 1013.5
20260905114022 74 0.0 0.0 0.00 0.00 0.00 93 1013.5
20260905113021 74 0.0 0.0 0.00 0.00 0.00 93 1013.4
20260905112022 74 0.0 0.0 0.00 0.00 0.00 93 1013.5
20260905111021 73 0.0 0.0 0.00 0.00 0.00 93 1013.4
20260905110022 73 0.0 0.0 0.00 0.00 0.00 93 1013.3
20260905105016 73 0.0 0.0 0.00 0.00 0.00 93 1013.1
20260905104021 73 0.0 0.0 0.00 0.00 0.00 93 1013.1
20260905103021 74 0.0 0.0 0.00 0.00 0.00 93 1013.1
20260905102022 74 0.0 0.0 0.00 0.00 0.00 93 1013.1
20260905101021 74 0.0 0.0 0.00 0.00 0.00 92 1013.0
20260905100022 74 0.0 0.0 0.00 0.00 0.00 92 1013.1
20260905095016 74 0.0 0.0 0.00 0.00 0.00 92 1013.0
20260905094021 74 0.0 0.0 0.00 0.00 0.00 92 1013.1
20260905093023 75 0.0 0.0 0.00 0.00 0.00 92 1013.1
20260905092021 74 0.0 0.0 0.00 0.00 0.00 92 1013.0
20260905091021 74 0.0 0.0 0.00 0.00 0.00 92 1013.1
20260905090042 74 0.0 0.0 0.00 0.00 0.00 90 1013.0
20260905085022 75 0.0 0.0 0.00 0.00 0.00 91 1013.0
20260905084016 75 0.0 0.0 0.00 0.00 0.00 91 1012.9
20260905083021 75 0.0 0.0 0.00 0.00 0.00 91 1012.9
20260905082022 75 0.0 0.0 0.00 0.00 0.00 91 1013.0
20260905081021 75 0.0 0.0 0.00 0.00 0.00 90 1013.1
20260905080021 76 0.0 0.0 0.00 0.00 0.00 91 1013.2
20260905075021 75 0.0 0.0 0.00 0.00 0.00 91 1013.1
20260905074016 75 0.0 0.0 0.00 0.00 0.00 90 1013.0
20260905073036 76 0.0 0.0 0.00 0.00 0.00 90 1013.0
20260905072021 76 0.0 0.0 0.00 0.00 0.00 90 1013.1
20260905071021 76 0.0 0.0 0.00 0.00 0.00 89 1013.1
20260905070021 76 0.0 0.0 0.00 0.00 0.00 90 1013.1
20260905065021 75 0.0 0.0 0.00 0.00 0.00 89 1013.2
20260905064041 76 0.0 0.0 0.00 0.00 0.00 89 1013.1
20260905063057 76 0.0 0.0 0.00 0.00 0.00 89 1013.2
20260905062021 76 0.0 0.0 0.00 0.00 0.00 89 1013.2
20260905061021 76 0.0 0.0 0.00 0.00 0.00 88 1013.2
20260905060041 76 0.0 0.0 0.00 0.00 0.00 87 1013.3
20260905055042 77 0.0 0.0 0.00 0.00 0.00 88 1013.4
20260905054022 77 0.0 0.0 0.00 0.00 0.00 88 1013.4
20260905053036 76 0.0 0.0 0.00 0.00 0.00 87 1013.4
20260905052016 77 0.0 0.0 0.00 0.00 0.00 87 1013.5
20260905051021 77 0.0 0.0 0.00 0.00 0.00 87 1013.5
20260905050022 77 0.0 0.0 0.00 0.00 0.00 85 1013.4
20260905045042 78 0.0 0.0 0.00 0.00 0.00 85 1013.5
20260905044022 78 0.0 0.0 0.00 0.00 0.00 86 1013.5
20260905043022 79 0.0 0.0 0.00 0.00 0.00 83 1013.4
20260905042023 80 0.0 0.0 0.00 0.00 0.00 81 1013.2
20260905041022 79 0.0 0.0 0.00 0.00 0.00 84 1013.3
20260905040017 79 0.0 0.0 0.00 0.00 0.00 84 1013.3
20260905035022 80 0.0 0.0 0.00 0.00 0.00 83 1013.3
20260905034102 80 0.0 0.0 0.00 0.00 0.00 82 1013.4
20260905033042 80 0.0 0.0 0.00 0.00 0.00 82 1013.5
20260905032022 80 0.0 0.0 0.00 0.00 0.00 82 1013.6
20260905031042 80 0.0 0.0 0.00 0.00 0.00 81 1013.6
20260905030022 80 0.0 0.0 0.00 0.00 0.00 80 1013.6
20260905025017 81 0.0 0.0 0.00 0.00 0.00 78 1013.6
20260905024022 81 0.0 0.0 0.00 0.00 0.00 78 1013.5
20260905023022 82 0.0 0.0 0.00 0.00 0.00 78 1013.4
20260905022022 84 0.0 0.0 0.00 0.00 0.00 73 1013.3
20260905021022 84 0.0 0.0 0.00 0.00 0.00 74 1013.3
20260905020022 85 0.0 0.0 0.00 0.00 0.00 72 1013.2
20260905015017 84 0.0 0.0 0.00 0.00 0.00 75 1013.0
20260905014022 84 0.0 0.0 0.00 0.00 0.00 73 1012.9
20260905013022 85 0.0 0.0 0.00 0.00 0.00 72 1012.7
20260905012022 85 0.0 0.0 0.00 0.00 0.00 72 1012.6
20260905011022 86 0.0 0.0 0.00 0.00 0.00 70 1012.4
20260905010022 85 0.0 0.0 0.00 0.00 0.00 71 1012.2
20260905005022 86 0.0 2.0 0.00 0.00 0.00 70 1012.2
20260905004017 87 0.0 0.0 0.00 0.00 0.00 70 1012.0
20260905003022 87 0.0 0.0 0.00 0.00 0.00 66 1012.0
20260905002025 88 0.0 2.0 0.00 0.00 0.00 65 1012.0
20260905001022 89 0.0 0.0 0.00 0.00 0.00 61 1012.0
20260905000042 92 0.0 0.0 0.00 0.00 0.00 58 1012.1
20260904235022 93 0.0 0.0 0.00 0.00 0.00 54 1012.1
20260904234017 94 203 0.0 2.0 0.00 0.00 0.00 52 1012.1
20260904233037 94 204 0.0 2.0 0.00 0.00 0.00 52 1012.1
20260904232023 95 203 0.0 3.0 0.00 0.00 0.00 54 1012.0
20260904231022 96 204 0.0 3.0 0.00 0.00 0.00 49 1012.0
20260904230022 98 204 0.0 3.0 0.00 0.00 0.00 45 1012.1
20260904225022 98 204 0.0 2.0 0.00 0.00 0.00 45 1012.0
20260904224022 98 204 0.0 2.0 0.00 0.00 0.00 46 1011.9
20260904223017 98 204 0.0 4.0 0.00 0.00 0.00 46 1011.9
20260904222042 98 194 1.0 6.0 0.00 0.00 0.00 44 1012.0
20260904221102 99 244 0.0 4.0 0.00 0.00 0.00 44 1012.0
20260904220022 99 214 1.0 6.0 0.00 0.00 0.00 44 1012.0
20260904215022 99 202 0.0 6.0 0.00 0.00 0.00 44 1012.2
20260904214023 99 206 1.0 4.0 0.00 0.00 0.00 44 1012.3
20260904213024 99 271 0.0 4.0 0.00 0.00 0.00 43 1012.5
20260904212020 99 242 1.0 5.0 0.00 0.00 0.00 43 1012.6
20260904211022 99 282 2.0 6.0 0.00 0.00 0.00 44 1012.7
20260904210022 99 201 1.0 6.0 0.00 0.00 0.00 43 1012.8
20260904205022 99 248 0.0 5.0 0.00 0.00 0.00 47 1012.9
20260904204022 94 0.0 0.0 0.00 0.00 0.00 58 1012.9
20260904203042 96 278 0.0 2.0 0.00 0.00 0.00 48 1013.0
20260904202017 97 278 1.0 5.0 0.00 0.00 0.00 47 1013.2
20260904201017 99 276 1.0 6.0 0.00 0.00 0.00 46 1013.4
20260904200022 99 179 0.0 4.0 0.00 0.00 0.00 44 1013.5
20260904195042 99 179 0.0 5.0 0.00 0.00 0.00 43 1013.7
20260904194022 100 202 2.0 10.0 0.00 0.00 0.00 45 1013.8
20260904193020 99 262 0.0 5.0 0.00 0.00 0.00 45 1014.1
20260904192022 98 276 1.0 5.0 0.00 0.00 0.00 43 1014.1
20260904191037 98 277 0.0 6.0 0.00 0.00 0.00 48 1014.3
20260904190022 98 271 0.0 4.0 0.00 0.00 0.00 47 1014.5
20260904185022 98 283 2.0 8.0 0.00 0.00 0.00 50 1014.6
20260904184022 98 265 0.0 6.0 0.00 0.00 0.00 47 1014.6
20260904183022 97 268 2.0 7.0 0.00 0.00 0.00 48 1014.7
20260904182022 97 274 2.0 7.0 0.00 0.00 0.00 53 1014.7
20260904181022 95 269 0.0 2.0 0.00 0.00 0.00 57 1014.8
20260904180017 95 270 1.0 6.0 0.00 0.00 0.00 48 1014.9
20260904175042 95 273 0.0 6.0 0.00 0.00 0.00 51 1014.9
20260904174022 96 198 2.0 7.0 0.00 0.00 0.00 48 1015.0
20260904173022 97 240 1.0 11.0 0.00 0.00 0.00 52 1015.1
20260904172022 95 175 1.0 7.0 0.00 0.00 0.00 49 1015.3
20260904171042 97 193 2.0 7.0 0.00 0.00 0.00 49 1015.4
20260904170037 97 224 2.0 7.0 0.00 0.00 0.00 49 1015.5
20260904165017 96 236 1.0 7.0 0.00 0.00 0.00 52 1015.7
20260904164022 95 251 2.0 8.0 0.00 0.00 0.00 51 1015.7
20260904163022 95 254 2.0 6.0 0.00 0.00 0.00 52 1015.6
20260904162022 94 282 0.0 6.0 0.00 0.00 0.00 55 1015.7
20260904161022 94 254 1.0 4.0 0.00 0.00 0.00 54 1015.9
20260904160022 93 273 2.0 9.0 0.00 0.00 0.00 56 1016.0
20260904155017 93 275 3.0 8.0 0.00 0.00 0.00 54 1015.9
20260904154022 92 0.0 0.0 0.00 0.00 0.00 57 1015.9
20260904153022 91 0.0 0.0 0.00 0.00 0.00 61 1016.0
20260904152022 91 0.0 0.0 0.00 0.00 0.00 63 1015.9
20260904151023 90 0.0 0.0 0.00 0.00 0.00 61 1016.0
20260904150022 89 0.0 0.0 0.00 0.00 0.00 65 1015.8
20260904145017 88 0.0 0.0 0.00 0.00 0.00 65 1015.7
20260904144017 88 0.0 0.0 0.00 0.00 0.00 65 1015.7
20260904143022 87 0.0 0.0 0.00 0.00 0.00 70 1015.7
20260904142022 86 0.0 0.0 0.00 0.00 0.00 70 1015.6
20260904141022 85 0.0 0.0 0.00 0.00 0.00 74 1015.6
20260904140042 84 0.0 0.0 0.00 0.00 0.00 75 1015.7
20260904135022 83 0.0 0.0 0.00 0.00 0.00 78 1015.6
20260904134017 82 0.0 0.0 0.00 0.00 0.00 80 1015.5
20260904133022 80 0.0 0.0 0.00 0.00 0.00 82 1015.6
20260904132022 80 0.0 0.0 0.00 0.00 0.00 84 1015.6
20260904131021 79 0.0 0.0 0.00 0.00 0.00 86 1015.6
20260904130022 77 0.0 0.0 0.00 0.00 0.00 90 1015.5
20260904125022 76 0.0 0.0 0.00 0.00 0.00 90 1015.4
20260904124022 76 0.0 0.0 0.00 0.00 0.00 91 1015.4
20260904123016 75 0.0 0.0 0.00 0.00 0.00 92 1015.2
20260904122021 74 0.0 0.0 0.00 0.00 0.00 92 1015.1
20260904121022 74 0.0 0.0 0.00 0.00 0.00 92 1015.1